Kremmling, CO

4:42 AM MDT on April 27, 2017 (GMT -0600)
Kremmling

Weather History for K20V - January, 2012

Change the Weather History Date:

Tuesday, January 10, 2012

  Actual Average Record
Temperature  
Mean Temperature 8 °F -  
Max Temperature 26 °F - 48 °F (2005)
Min Temperature -9 °F - -16 °F (2011)
Degree Days  
Heating Degree Days 56    
Month to date heating degree days  
Cooling Degree Days 0    
Month to date cooling degree days  
Moisture  
Dew Point -2 °F    
Average Humidity 71    
Maximum Humidity 85    
Minimum Humidity 54    
Precipitation  
Precipitation 0.00 in - 0.09 in (2005)
Sea Level Pressure  
Sea Level Pressure 30.22 in    
Wind  
Wind Speed 0 mph (SW)    
Max Wind Speed 5 mph    
Max Gust Speed -    
Visibility 8 miles    
Events Snow    
T = Trace of Precipitation, MM = Missing Value Source: NWS Daily Summary

Daily Weather History Graph

Daily Weather History Graph

Search for Another Location

Airport or City:

Trip Planner

Search our weather history database for the weather conditions in past years. The results will help you decide how hot, cold, wet, or windy it might be!

Date:

Astronomy

Jan. 10, 2012 Rise Set
Actual Time 7:27 AM MST 4:58 PM MST
Civil Twilight 6:57 AM MST 5:28 PM MST
Nautical Twilight 6:23 AM MST 6:02 PM MST
Astronomical Twilight 5:50 AM MST 6:35 PM MST
Moon 6:53 PM MST (1/10) 8:06 AM MST (1/10)
Length of Visible Light 10h 31m
Length of Day
9h 31m
Full, 98% of the Moon is Illuminated
Jan 10
Full
Jan 16
Last Quarter
Jan 23
New
Jan 30
First Quarter
Feb 7
Full

Hourly Weather History & Observations

Time (MST) Temp. Windchill Dew Point Humidity Pressure Visibility Wind Dir Wind Speed Gust Speed Precip Events Conditions
12:03 AM -0.4 °F - -7.6 °F 72% 30.35 in 7.0 mi Calm Calm - N/A   Clear
12:22 AM -0.4 °F - -7.6 °F 72% 30.35 in 7.0 mi Calm Calm - N/A   Clear
1:03 AM -2.2 °F - -7.6 °F 78% 30.35 in 7.0 mi Calm Calm - N/A   Clear
1:23 AM -2.2 °F - -7.6 °F 78% 30.34 in 7.0 mi Calm Calm - N/A   Clear
1:43 AM -2.2 °F - -7.6 °F 78% 30.34 in 7.0 mi Calm Calm - N/A   Clear
2:03 AM -4.0 °F - -9.4 °F 78% 30.34 in 7.0 mi Calm Calm - N/A   Clear
2:43 AM -5.8 °F - -11.2 °F 77% 30.34 in 10.0 mi Calm Calm - N/A   Clear
3:03 AM -5.8 °F - -11.2 °F 77% 30.33 in 7.0 mi Calm Calm - N/A   Clear
3:23 AM -5.8 °F - -11.2 °F 77% 30.33 in 10.0 mi Calm Calm - N/A   Clear
3:43 AM -5.8 °F - -11.2 °F 77% 30.33 in 7.0 mi Calm Calm - N/A   Clear
4:03 AM -5.8 °F - -13.0 °F 71% 30.33 in 10.0 mi Calm Calm - N/A   Clear
4:23 AM -5.8 °F - -13.0 °F 71% 30.32 in 10.0 mi Calm Calm - N/A   Clear
4:43 AM -5.8 °F - -11.2 °F 77% 30.32 in 10.0 mi Calm Calm - N/A   Clear
5:03 AM -7.6 °F - -14.8 °F 71% 30.32 in 10.0 mi Calm Calm - N/A   Clear
5:23 AM -7.6 °F - -14.8 °F 71% 30.32 in 10.0 mi Calm Calm - N/A   Clear
5:43 AM -7.6 °F - -14.8 °F 71% 30.32 in 10.0 mi Calm Calm - N/A   Clear
6:02 AM -7.6 °F - -14.8 °F 71% 30.33 in 7.0 mi Calm Calm - N/A   Clear
6:23 AM -7.6 °F - -14.8 °F 71% 30.32 in 10.0 mi Calm Calm - N/A   Clear
6:43 AM -9.4 °F - -16.6 °F 71% 30.32 in 5.0 mi Calm Calm - N/A   Haze
7:03 AM -9.4 °F - -14.8 °F 77% 30.32 in 7.0 mi Calm Calm - N/A   Scattered Clouds
7:23 AM -7.6 °F - -14.8 °F 71% 30.32 in 7.0 mi Calm Calm - N/A   Scattered Clouds
7:43 AM -7.6 °F - -14.8 °F 71% 30.32 in 3.0 mi Calm Calm - N/A   Haze
8:03 AM -9.4 °F - -14.8 °F 77% 30.32 in 7.0 mi Calm Calm - N/A   Mostly Cloudy
8:23 AM -7.6 °F - -14.8 °F 71% 30.32 in 4.0 mi Calm Calm - N/A   Haze
8:43 AM -5.8 °F - -11.2 °F 77% 30.33 in 5.0 mi Calm Calm - N/A   Haze
9:03 AM -4.0 °F - -9.4 °F 78% 30.32 in 2.0 mi Calm Calm - N/A   Haze
9:23 AM -0.4 °F - -5.8 °F 78% 30.32 in 4.0 mi Calm Calm - N/A   Haze
9:43 AM 1.4 °F - -4.0 °F 78% 30.31 in 7.0 mi Calm Calm - N/A   Scattered Clouds
10:03 AM 5.0 °F - -0.4 °F 78% 30.30 in 5.0 mi Calm Calm - N/A   Haze
10:23 AM 8.6 °F - 1.4 °F 73% 30.29 in 5.0 mi Calm Calm - N/A Snow Light Snow
10:43 AM 10.4 °F - 3.2 °F 73% 30.28 in 7.0 mi Calm Calm - N/A   Clear
11:03 AM 12.2 °F - 5.0 °F 73% 30.26 in 7.0 mi Calm Calm - N/A   Clear
11:23 AM 14.0 °F - 5.0 °F 67% 30.24 in 10.0 mi Calm Calm - N/A   Clear
11:43 AM 14.0 °F - 5.0 °F 67% 30.22 in 10.0 mi Calm Calm - N/A   Clear
12:02 PM 17.6 °F - 6.8 °F 63% 30.20 in 10.0 mi Calm Calm - N/A   Clear
12:23 PM 17.6 °F - 6.8 °F 63% 30.18 in 10.0 mi Calm Calm - N/A   Clear
12:43 PM 17.6 °F - 8.6 °F 68% 30.16 in 10.0 mi Calm Calm - N/A   Clear
1:03 PM 19.4 °F - 8.6 °F 63% 30.14 in 10.0 mi Calm Calm - N/A   Clear
1:43 PM 21.2 °F - 10.4 °F 63% 30.12 in 10.0 mi Calm Calm - N/A   Clear
2:03 PM 23.0 °F - 10.4 °F 59% 30.11 in 10.0 mi Calm Calm - N/A   Clear
2:23 PM 23.0 °F - 10.4 °F 59% 30.10 in 10.0 mi Calm Calm - N/A   Clear
2:43 PM 23.0 °F - 10.4 °F 59% 30.08 in 10.0 mi Calm Calm - N/A   Clear
3:02 PM 24.8 °F - 12.2 °F 59% 30.08 in 10.0 mi Calm Calm - N/A   Clear
3:23 PM 24.8 °F - 10.4 °F 54% 30.06 in 10.0 mi Calm Calm - N/A   Clear
3:43 PM 26.6 °F - 12.2 °F 55% 30.06 in 10.0 mi Calm Calm - N/A   Clear
4:03 PM 24.8 °F - 12.2 °F 59% 30.06 in 10.0 mi Calm Calm - N/A   Clear
4:23 PM 23.0 °F - 10.4 °F 59% 30.06 in 10.0 mi Calm Calm - N/A   Clear
4:43 PM 23.0 °F - 12.2 °F 63% 30.06 in 10.0 mi Calm Calm - N/A   Clear
5:23 PM 15.8 °F 10.2 °F 10.4 °F 79% 30.05 in 10.0 mi West 3.5 mph - N/A   Clear
5:43 PM 12.2 °F - 5.0 °F 73% 30.04 in 10.0 mi Calm Calm - N/A   Clear
6:03 PM 12.2 °F - 5.0 °F 73% 30.04 in 10.0 mi Calm Calm - N/A   Clear
6:23 PM 10.4 °F - 5.0 °F 79% 30.04 in 10.0 mi Calm Calm - N/A   Clear
6:43 PM 8.6 °F - 3.2 °F 79% 30.04 in 7.0 mi Calm Calm - N/A   Clear
7:03 PM 5.0 °F - -0.4 °F 78% 30.02 in 10.0 mi Calm Calm - N/A   Clear
7:23 PM 5.0 °F - 1.4 °F 85% 30.02 in 10.0 mi Calm Calm - N/A   Clear
7:43 PM 5.0 °F -4.1 °F -0.4 °F 78% 30.02 in 10.0 mi South 4.6 mph - N/A   Clear
8:02 PM 5.0 °F - -0.4 °F 78% 30.02 in 10.0 mi Calm Calm - N/A   Clear
8:23 PM 3.2 °F -4.2 °F -0.4 °F 85% 30.00 in 7.0 mi NNE 3.5 mph - N/A   Clear
9:03 PM 1.4 °F - -4.0 °F 78% 30.00 in 7.0 mi Calm Calm - N/A   Clear
9:23 PM 3.2 °F -6.2 °F -2.2 °F 78% 30.00 in 10.0 mi NNE 4.6 mph - N/A   Clear
9:43 PM 1.4 °F - -5.8 °F 72% 30.00 in 7.0 mi Calm Calm - N/A   Clear
10:03 PM 1.4 °F -6.2 °F -4.0 °F 78% 29.99 in 7.0 mi East 3.5 mph - N/A   Clear
10:23 PM 1.4 °F - -4.0 °F 78% 29.99 in 10.0 mi Calm Calm - N/A   Clear
10:43 PM 1.4 °F - -4.0 °F 78% 29.99 in 5.0 mi Calm Calm - N/A   Haze
11:03 PM -0.4 °F - -5.8 °F 78% 30.00 in 10.0 mi Calm Calm - N/A   Clear
11:23 PM 1.4 °F -6.2 °F -5.8 °F 72% 29.98 in 10.0 mi ESE 3.5 mph - N/A   Clear
11:42 PM 1.4 °F - -5.8 °F 72% 29.97 in 7.0 mi Calm Calm - N/A   Clear